Location: La Trinit�
(48.1620°N, 3.4512°W)
Time: 17:30:56
(UTC+00:00)

Cosmos 2082 Rocket - Pass Details

Date: 08 May 2021
Orbit: 834 x 853 km, 71.0° (Epoch: 21 June)

Event Time Altitude Azimuth Distance (km) Brightness Sun altitude
Rises 20:34:44 0° 337° (NNW) 3,393 6.6 -8.8°
Reaches altitude 10° 20:37:58 10° 355° (N) 2,456 5.3 -9.2°
Maximum altitude 20:41:51 19° 39° (NE) 1,912 4.1 -9.7°
Drops below altitude 10° 20:45:43 10° 83° (E) 2,450 4.2 -10.2°
Enters shadow 20:47:04 - 93° (E) 2,812 4.5 -10.4°
